Weather History for Truth Or Consequences, NM

Change the Weather History Date:

Tuesday, February 19, 2013

  Actual Average Record
Temperature  
Mean Temperature 45 °F -  
Max Temperature 60 °F - 78 °F (1999)
Min Temperature 29 °F - 24 °F (2009)
Degree Days  
Heating Degree Days 20    
Month to date heating degree days 389  
Since 1 July heating degree days 2332  
Cooling Degree Days 0    
Month to date cooling degree days 0  
Year to date cooling degree days 0  
Moisture  
Dew Point 14 °F    
Average Humidity 41    
Maximum Humidity 70    
Minimum Humidity 11    
Precipitation  
Precipitation 0.00 in - 0.19 in (1997)
Month to date precipitation 0.01  
Year to date precipitation 0.08  
Sea Level Pressure  
Sea Level Pressure 29.83 in    
Wind  
Wind Speed 13 mph (SSW)    
Max Wind Speed 31 mph    
Max Gust Speed 38 mph    
Visibility 10 miles    
Events      
T = Trace of Precipitation, MM = Missing Value Source: NWS Daily Summary

Daily Weather History Graph

Daily Weather History Graph

Search for Another Location

Airport:

Trip Planner

Search our weather history database for the weather conditions in past years. The results will help you decide how hot, cold, wet, or windy it might be!

Date:

Astronomy

Feb. 19, 2013 Rise Set
Actual Time 6:48 AM MST 5:57 PM MST
Civil Twilight 6:23 AM MST 6:23 PM MST
Nautical Twilight 5:54 AM MST 6:51 PM MST
Astronomical Twilight 5:25 AM MST 7:20 PM MST
Moon 12:41 PM MST (2/19) 2:13 AM MST (2/19)
Length of Visible Light 11h 59m
Length of Day
11h 09m
Waxing Gibbous, 68% of the Moon is Illuminated
Feb 19
Waxing Gibbous
Feb 25
Full
Mar 4
Last Quarter
Mar 11
New
Mar 19
First Quarter

Hourly Weather History & Observations

Time (MST) Temp. Windchill Dew Point Humidity Pressure Visibility Wind Dir Wind Speed Gust Speed Precip Events Conditions
12:53 AM 39.9 °F 35.8 °F -6.0 °F 14% 29.93 in 10.0 mi North 5.8 mph - N/A   Clear
1:53 AM 37.9 °F 35.5 °F -7.1 °F 15% 29.94 in 10.0 mi WNW 3.5 mph - N/A   Clear
2:53 AM 32.0 °F 25.6 °F -2.0 °F 23% 29.95 in 10.0 mi WNW 6.9 mph - N/A   Clear
3:53 AM 32.0 °F 24.2 °F -0.0 °F 26% 29.93 in 10.0 mi NW 9.2 mph - N/A   Clear
4:53 AM 32.0 °F 25.6 °F 1.0 °F 27% 29.94 in 10.0 mi NW 6.9 mph - N/A   Clear
5:53 AM 33.1 °F 26.1 °F -0.9 °F 23% 29.94 in 10.0 mi NW 8.1 mph - N/A   Clear
6:53 AM 28.9 °F - -0.9 °F 28% 29.96 in 10.0 mi Calm Calm - N/A   Clear
7:53 AM 36.0 °F - -0.0 °F 22% 29.96 in 10.0 mi Calm Calm - N/A   Clear
8:53 AM 43.0 °F 41.3 °F -7.1 °F 12% 29.94 in 10.0 mi NNE 3.5 mph - N/A   Clear
9:53 AM 46.9 °F - -6.0 °F 11% 29.92 in 10.0 mi East 4.6 mph - N/A   Clear
10:53 AM 50.0 °F - -2.0 °F 12% 29.89 in 10.0 mi SE 6.9 mph - N/A   Clear
11:53 AM 55.0 °F - 3.0 °F 12% 29.82 in 10.0 mi South 5.8 mph - N/A   Clear
12:53 PM 60.1 °F - 12.0 °F 15% 29.75 in 10.0 mi South 20.7 mph 31.1 mph N/A   Clear
1:53 PM 57.9 °F - 19.0 °F 22% 29.73 in 10.0 mi South 27.6 mph 38.0 mph N/A   Clear
2:53 PM 57.0 °F - 24.1 °F 28% 29.75 in 10.0 mi South 27.6 mph 35.7 mph N/A   Clear
3:53 PM 54.0 °F - 34.0 °F 47% 29.76 in 10.0 mi South 19.6 mph 26.5 mph N/A   Partly Cloudy
5:53 PM 52.0 °F - 33.1 °F 49% 29.73 in 10.0 mi South 21.9 mph 28.8 mph N/A   Clear
6:53 PM 50.0 °F - 34.0 °F 54% 29.76 in 10.0 mi South 19.6 mph 28.8 mph N/A   Clear
7:53 PM 48.9 °F - 33.1 °F 54% 29.75 in 10.0 mi SSW 20.7 mph 32.2 mph N/A   Clear
8:53 PM 48.0 °F - 34.0 °F 58% 29.73 in 10.0 mi SSW 10.4 mph - N/A   Clear
9:53 PM 46.9 °F - 35.1 °F 63% 29.72 in 10.0 mi South 18.4 mph 25.3 mph N/A   Clear
10:53 PM 45.0 °F 37.9 °F 35.1 °F 68% 29.70 in 10.0 mi South 16.1 mph - N/A   Clear
11:53 PM 44.1 °F 37.4 °F 35.1 °F 71% 29.67 in 10.0 mi South 13.8 mph - N/A   Clear